This is the latest recevied weather packets stored in our database for station/object SR6WVX. If no packets are shown the sender has not sent any weather packets the latest 10 day(s).
| Time | Temp. | Humidity | Pressure | Rain* | Wind** | Luminosity | Snow |
|---|---|---|---|---|---|---|---|
| 1778116457 | 12.22° C | 93% | 1001.3 hPa | 3.05 mm | - | - | - |
| 1778116157 | 12.22° C | 93% | 1001.4 hPa | 3.05 mm | - | - | - |
| 1778115856 | 12.78° C | 93% | 1001.3 hPa | 3.05 mm | - | - | - |
| 1778115556 | 12.78° C | 93% | 1001.4 hPa | 3.05 mm | - | - | - |
| 1778115256 | 12.78° C | 93% | 1001.4 hPa | 2.54 mm | - | - | - |
| 1778114955 | 12.78° C | 93% | 1001.5 hPa | 2.03 mm | - | - | - |
| 1778114655 | 12.78° C | 93% | 1001.4 hPa | 2.54 mm | - | - | - |
| 1778114355 | 12.78° C | 93% | 1001.1 hPa | 2.03 mm | - | - | - |
| 1778114055 | 12.78° C | 93% | 1001.5 hPa | 2.03 mm | - | - | - |
| 1778113754 | 12.78° C | 93% | 1002.2 hPa | 1.52 mm | - | - | - |
| 1778113454 | 12.78° C | 93% | 1002.1 hPa | 2.03 mm | - | - | - |
| 1778113154 | 12.78° C | 93% | 1002.2 hPa | 1.52 mm | - | - | - |
| 1778112854 | 12.78° C | 93% | 1002 hPa | 1.52 mm | - | - | - |
| 1778112553 | 12.78° C | 93% | 1001.7 hPa | 2.54 mm | - | - | - |
| 1778112253 | 12.78° C | 93% | 1001.4 hPa | 2.54 mm | - | - | - |
| 1778111953 | 12.78° C | 93% | 1001.4 hPa | 3.56 mm | - | - | - |
| 1778111653 | 12.78° C | 93% | 1001.3 hPa | 4.06 mm | - | - | - |
| 1778111352 | 12.78° C | 93% | 1001.2 hPa | 3.56 mm | - | - | - |
| 1778111052 | 12.78° C | 93% | 1001.1 hPa | 4.06 mm | - | - | - |
| 1778110752 | 12.78° C | 93% | 1001.2 hPa | 4.57 mm | - | - | - |
| 1778110452 | 12.78° C | 93% | 1001.4 hPa | 5.08 mm | - | - | - |
| 1778110151 | 12.78° C | 93% | 1001.6 hPa | 5.08 mm | - | - | - |
| 1778109851 | 13.33° C | 93% | 1001.7 hPa | 5.08 mm | - | - | - |
| 1778109551 | 13.33° C | 92% | 1001.7 hPa | 5.08 mm | - | - | - |
| 1778109250 | 13.33° C | 92% | 1002.1 hPa | 4.57 mm | - | - | - |
* Rain latest hour (hover to see other rain measurements)
** Current wind speed in m/s (hover to see current wind gust speed)